Showing default

BLUEWALKER 3, 53807

Orbit data source: Space-Track

BLUEWALKER 3, 53807 is a payload satellite owned by AST & Science (US) in LEO that was launched on Sun, 11 Sep 2022 UTC via an FALCON 9 launch vehicle from the Air Force Eastern Test Range (AFETR). Payload-class satellites include a variety of spacecraft equipped with specific instruments for various scientific and technological missions. These include communications satellites like Starlink; space stations such as the ISS; scientific satellites like the Hubble; Earth observation satellites from companies like Planet Labs, Umbra, and HawkEye 360; GPS; miniature CubeSats for education and research; and military/defense satellites.

Loading next visibility...
Identifier
53807, 2022-111AL
Orbit
LEO
Country
Flag of USUS
Related business
Manufacturer
AST & Science
Mission
Partially operational Commercial Communications
Bus & Motor
BW3, Unknown motor
Mass
1,500 kg wet, 1,500 kg dry
Launch date (UTC)
2022-09-11 (3 years ago)
Launch vehicle
FALCON 9
Launch site
Air Force Eastern Test Range (AFETR)
Object type
Payload
Rocket body
Debris
Shape & HBR
Box + 1 Plate, 6.0 m
Radar Cross Section
1.500 m², Medium (>0.1 m² and < 1m²)

Expand to show TLE details & history
Last TLE update: 10 hours ago

TLE from 10 hours ago
0 BLUEWALKER 3
1 53807U 22111AL  26037.91188363  .00006464  00000-0  18815-3 0  9993
2 53807  53.2290 284.8646 0008041 124.3319 235.8447 15.36695625190168
Epoch: 2026-02-06T21:53Z
TLE epoch observation values (Epoch: 2026-02-06T21:53:06.745Z)
Latitude
-0.00006°
Longitude
179.54349°
Altitude
459.887 km
Speed
7.636 km/s
True Right ascension
18h 59m 27s
True Declination
0° 00' 00"
Sunlit
Object was in daylight at epoch
Visualization orbit readout
Latitude
Unknown
Longitude
Unknown
Altitude
Unknown
Speed
Unknown
Apparent Right ascension
Unknown
Apparent Declination
Unknown
Sunlit
N/A
Visualization observer readout
Local Sidereal Time
09:47:34
Azimuth
Unknown
Elevation
Unknown
Doppler factor
Unknown
Orbital elements
Apogee altitude
461.63 km
Perigee altitude
450.639 km
Semi-major axis
6,834.272 km
Eccentricity
0.0008
Inclination
53.229°
RAAN
284.8646°
Arg. of periapsis
124.3319°
True anomaly
235.76849°
Mean anomaly
235.8447°
Eccentric anomaly
235.80659°
Mean motion
3.84154 °/min
Orbital period
93.71 mins
BSTAR
0.00018815
Loading maneuver chart data...
Computing Atmospheric mass density...
Loading historical data...
Loading historical data...
Loading historical data...
Loading historical data...
Loading historical data...
Loading historical data...
Loading historical data...

Documentation

Showing up to 5 results
|